Volver al catálogo

NAVSTAR 58

USA 190

ActivoNavegaciónHEO
NORAD 29486·PAYLOAD·🇺🇸 United States

Lanzado Sep 25, 2006 desde Cape Canaveral Space Force Station

Loading…

Próximos Pases (próximas 24 horas)

TLE

ActualizadoSource: CelesTrak SupGP

Época: Sep 16, 2026, 16:44 UTC

1 29486C 06042A   26259.69756944  .00000000  00000+0  00000+0 0  2592
2 29486  54.7168 147.7046 0108957  57.2355 279.4772  2.00565340    12

Sigue NAVSTAR 58 en tiempo real con AllMySat

Download on the App Store